Miscellaneous Local Product
Issued by NWS North Platte, NE

Home | Current Version | Previous Version | Text Only | Print | Product List | Glossary On
Versions: 1 2 3 4 5 6 7 8 9 10 11 12 13 14 15 16 17 18 19 20 21 22 23 24 25 26 27 28 29 30 31 32 33 34 35 36 37 38 39 40 41 42 43 44 45 46 47 48 49 50
674
AXUS43 KLBF 030110
MISLBF


WESTERN AND NORTH CENTRAL NEBRASKA HOURLY WEATHER ROUNDUP
NATIONAL WEATHER SERVICE NORTH PLATTE NE
700 PM CST FRI DEC 02 2016

NOTE: "FAIR" INDICATES FEW OR NO CLOUDS BELOW 12,000 FEET WITH NO
SIGNIFICANT WEATHER AND/OR OBSTRUCTIONS TO VISIBILITY.

NOTE: STATIONS NOT REPORTING VARIABLES SUCH AS SKY/WEATHER OR
PRESSURE ARE PROVIDED BY RAWS AND APRS NETWORKS AND ARE NOT UNDER
NATIONAL WEATHER SERVICE QUALITY CONTROL.

...OBSERVATIONS IN AND NEAR THE EASTERN PANHANDLE OF NEBRASKA...

CITY           SKY/WX    TMP DP  RH WIND       PRES   REMARKS
PINE RIDGE     CLEAR     26  22  84 NE3       30.20R
CHADRON        PTCLDY    25  16  68 CALM      30.20R
ALLIANCE       CLOUDY    29  19  66 SW9       30.19S WCI  20
SIDNEY         CLOUDY    24  18  77 SW7       30.20S WCI  16
CRESCENT LAKE    N/A     30  20  65 SW6         N/A  WCI  24
$$

...OBSERVATIONS IN NORTHERN NEBRASKA AND FAR SOUTHERN SOUTH DAKOTA...

CITY           SKY/WX    TMP DP  RH WIND       PRES   REMARKS
WINNER         FAIR      30  24  78 S7        30.26R WCI  23
VALENTINE      CLEAR     26  21  81 SW5       30.24S WCI  20
THEDFORD       CLEAR     30  20  66 CALM      30.23F
AINSWORTH      CLEAR     28  23  82 CALM      30.25R
O`NEILL        PTCLDY    29  26  86 SE3       30.28S
ORD            CLEAR     25  18  74 CALM      30.26S
BROKEN BOW     CLEAR     25  21  85 CALM      30.24S
VALENTINE NWR    N/A     31  23  72 CALM        N/A
BUTTE            N/A     29  25  85 E3          N/A
CHAMBERS         N/A     26  19  74 CALM        N/A
EWING            N/A     28  25  89 CALM        N/A
$$

...OBSERVATIONS IN SOUTHWEST NEBRASKA AND FAR NORTHEAST COLORADO...

CITY           SKY/WX    TMP DP  RH WIND       PRES   REMARKS
WRAY           MOCLDY    34  23  64 CALM      30.23
HOLYOKE        FAIR      34  21  60 CALM      30.23R
IMPERIAL       PTCLDY    31  22  69 CALM      30.23R
OGALLALA       CLEAR     25  19  80 CALM      30.22S
NORTH PLATTE   CLEAR     25  18  74 E3        30.24S
MCCOOK         CLEAR     31  20  63 E3        30.25R
LEXINGTON      CLEAR     26  22  85 CALM      30.25F
STAPLETON        N/A     29  20  68 CALM        N/A
GOTHENBURG       N/A     31  22  69 CALM        N/A
CALLAWAY         N/A     26  20  79 CALM        N/A
$$

...OBSERVATIONS IN CENTRAL LINCOLN COUNTY AREA...

CITY           SKY/WX    TMP DP  RH WIND       PRES   REMARKS
N.P. AIRPORT   CLEAR     25  18  74 E3        30.24S
N.P. DOWNTOWN    N/A     33  23  68 CALM        N/A
N.P. SOUTHEAST   N/A     31  22  68 CALM        N/A
N.P. HILLCREST   N/A     31  21  67 E6          N/A  WCI  25
$$

...SOME OBSERVATIONS FROM AROUND THE REGION...

CITY           SKY/WX    TMP DP  RH WIND       PRES   REMARKS
LARAMIE        CLOUDY    17  13  84 SE7       30.08R WCI   8
CHEYENNE       FLURRIES  25  22  88 S8        30.13S WCI  16
DENVER         CLOUDY    27  22  81 E5        30.15S WCI  22
AKRON          CLOUDY    30  17  58 S6        30.20R WCI  24
SCOTTSBLUFF    PTCLDY    31  19  61 S3        30.19F
RAPID CITY     CLEAR     25  22  88 CALM      30.19S
BISMARCK       CLOUDY    24  21  88 SE10      30.23F WCI  14
PIERRE         CLEAR     25  22  88 SE3       30.25S
SIOUX FALLS    CLOUDY    30  24  78 N5        30.30R WCI  25
OMAHA          CLOUDY    36  28  73 CALM      30.34R
GRAND ISLAND   CLOUDY    30  24  78 CALM      30.29S
KANSAS CITY    PTCLDY    38  24  57 NE6       30.31R WCI  33
WICHITA        PTCLDY    45  22  40 NE12      30.23S
OKLAHOMA CITY  CLOUDY    54  40  59 E8        30.13S
DALLAS         LGT RAIN  58  40  51 E8        30.10R
AMARILLO       CLOUDY    41  33  73 E10       30.16R
DODGE CITY     CLOUDY    38  15  39 NE9       30.21R WCI  31
HAYS           CLEAR     31  22  69 NE7       30.25F WCI  24
GOODLAND       CLOUDY    34  17  50 NE6       30.23R WCI  29
$$




USA.gov is the U.S. government's official web portal to all federal, state and local government web resources and services.